TimeAKDT,TemperatureF,Dew PointF,Humidity,Sea Level PressureIn,VisibilityMPH,Wind Direction,Wind SpeedMPH,Gust SpeedMPH,PrecipitationIn,Events,Conditions,WindDirDegrees,DateUTC
12:53 AM,48.0,37.9,68,30.07,10.0,SSW,20.7,32.2,N/A,,Overcast,210,2013-05-05 08:53:00
1:53 AM,48.9,37.9,66,30.06,10.0,SSW,19.6,31.1,N/A,,Overcast,210,2013-05-05 09:53:00
2:53 AM,48.0,37.9,68,30.06,10.0,SSW,24.2,33.4,N/A,,Overcast,210,2013-05-05 10:53:00
3:53 AM,46.9,39.0,74,30.06,10.0,SSW,27.6,39.1,N/A,,Overcast,200,2013-05-05 11:53:00
4:53 AM,46.9,39.0,74,30.07,10.0,SSW,26.5,34.5,N/A,,Overcast,200,2013-05-05 12:53:00
5:53 AM,46.0,39.0,76,30.09,10.0,SSW,24.2,29.9,N/A,,Overcast,210,2013-05-05 13:53:00
6:53 AM,46.0,39.9,79,30.10,10.0,SSW,23.0,32.2,N/A,,Overcast,200,2013-05-05 14:53:00
7:53 AM,46.9,39.9,77,30.11,10.0,SSW,18.4,29.9,N/A,,Overcast,200,2013-05-05 15:53:00
8:53 AM,46.9,39.0,74,30.12,10.0,SSW,18.4,31.1,N/A,,Overcast,200,2013-05-05 16:53:00
9:53 AM,46.9,39.0,74,30.11,10.0,SSW,20.7,-,N/A,,Overcast,200,2013-05-05 17:53:00
10:53 AM,48.0,39.0,71,30.10,10.0,SSW,23.0,28.8,N/A,,Overcast,200,2013-05-05 18:53:00
11:53 AM,48.0,39.0,71,30.09,10.0,SSW,20.7,28.8,N/A,,Mostly Cloudy,200,2013-05-05 19:53:00
12:53 PM,48.0,39.9,74,30.09,10.0,SSW,16.1,-,0.00,,Overcast,210,2013-05-05 20:53:00
1:53 PM,48.9,39.0,69,30.09,10.0,SSW,13.8,-,0.00,,Overcast,200,2013-05-05 21:53:00
2:53 PM,48.9,37.9,66,30.07,10.0,SSW,19.6,25.3,N/A,,Overcast,210,2013-05-05 22:53:00
3:53 PM,51.1,39.0,63,30.05,10.0,SSW,20.7,-,N/A,,Mostly Cloudy,200,2013-05-05 23:53:00
4:53 PM,48.9,37.9,66,30.05,10.0,SSW,21.9,-,N/A,,Clear,210,2013-05-06 00:53:00
5:53 PM,48.0,37.9,68,30.04,10.0,SSW,19.6,-,N/A,,Mostly Cloudy,210,2013-05-06 01:53:00
6:53 PM,48.0,37.9,68,30.03,10.0,SSW,13.8,-,N/A,,Mostly Cloudy,210,2013-05-06 02:53:00
7:53 PM,48.0,37.9,68,30.03,10.0,SSW,12.7,20.7,N/A,,Overcast,200,2013-05-06 03:53:00
8:53 PM,46.9,37.9,71,30.04,10.0,SSW,11.5,-,N/A,,Overcast,200,2013-05-06 04:53:00
9:53 PM,44.1,37.9,79,30.05,10.0,West,9.2,-,N/A,,Mostly Cloudy,260,2013-05-06 05:53:00
10:53 PM,44.1,39.0,82,30.04,10.0,Calm,Calm,-,N/A,,Overcast,0,2013-05-06 06:53:00
11:53 PM,43.0,37.9,82,30.05,10.0,Calm,Calm,-,N/A,,Overcast,0,2013-05-06 07:53:00